[[{"header":{"parameterUnit":"m.s-1","parameterCategory":2,"la1":30.2992,"la2":30.254,"lo1":-89.0895,"lo2":-89.0443,"dy":0.0025,"dx":0.0025,"nx":19,"ny":19,"refTime":"2026-03-31T21:00:00:Z","depth":"0","parameterNumber":2,"parameterNumberName":"U-component_of_CURRENTS"},"data":[0,0,0,-0.1659,-0.1661,-0.1745,-0.1745,-0.1719,-0.1719,0,0,0,0,0,0,0,0,0,0,0,-0.1623,-0.1624,-0.1659,-0.1662,-0.1745,-0.1745,-0.1719,-0.1719,0,0,0,0,0,0,0,0,0,0,0,-0.1623,-0.1624,-0.1625,-0.1662,-0.1745,-0.1745,-0.172,-0.1685,0,0,0,0,0,0,0,0,0,0,-0.1619,-0.1594,-0.1624,-0.1625,-0.1663,-0.1744,-0.1745,-0.1685,-0.1687,-0.165,0,-0.1676,0,-0.1705,-0.1716,-0.1716,0,0,0,-0.1644,-0.1592,-0.1637,-0.1625,-0.1664,-0.1744,-0.1702,-0.1687,-0.169,-0.1652,-0.1676,-0.1677,-0.1705,-0.1716,-0.1715,-0.1637,-0.1637,0,0,-0.164,-0.161,-0.1636,-0.1639,-0.17,-0.17,-0.1705,-0.169,-0.1682,-0.1676,-0.1677,-0.1704,-0.1715,-0.1715,-0.1638,-0.1637,0,0,0,-0.1638,-0.1607,-0.1654,-0.1639,-0.167,-0.1703,-0.1709,-0.1682,-0.1706,-0.1677,-0.1704,-0.1715,-0.1714,-0.1638,-0.1637,-0.1646,0,0,0,-0.1634,-0.1608,-0.1652,-0.1631,-0.1671,-0.1691,-0.1701,-0.1706,-0.1707,-0.1704,-0.1715,-0.1714,-0.1639,-0.1638,-0.1647,-0.1695,0,0,0,-0.1617,-0.1605,-0.1626,-0.163,-0.1678,-0.1693,-0.1714,-0.1707,-0.1723,-0.1716,-0.1714,-0.1639,-0.1638,-0.1647,-0.1695,-0.1815,0,0,0,-0.1568,-0.1601,-0.1625,-0.1659,-0.1678,-0.1721,-0.1715,-0.1726,-0.1721,-0.1715,-0.1639,-0.1638,-0.1648,-0.1695,-0.1813,-0.182,-0.183,0,0,-0.1585,-0.1601,-0.1623,-0.1648,-0.1681,-0.1708,-0.1698,-0.1688,-0.1683,-0.1633,-0.1632,-0.1646,-0.1695,-0.1815,-0.1749,-0.1763,0,0,0,-0.1612,-0.1621,-0.1639,-0.1661,-0.17,-0.1697,-0.1689,-0.1687,-0.1656,-0.1681,-0.1619,-0.165,-0.1727,-0.1723,-0.1733,-0.1686,-0.1632,-0.1632,-0.1632,-0.1566,-0.1598,-0.1609,-0.1636,-0.1656,-0.167,-0.1685,-0.1667,-0.1636,-0.1617,-0.1634,-0.1703,-0.1692,-0.1701,-0.165,-0.1584,-0.1584,-0.1584,-0.1584,-0.1548,-0.1545,-0.1569,-0.1592,-0.1604,-0.1595,-0.1632,-0.1633,-0.1685,-0.1616,-0.169,-0.1701,-0.1713,-0.1654,-0.1584,-0.1584,-0.1584,-0.1584,-0.1584,-0.149,-0.1493,-0.1511,-0.1522,-0.1537,-0.1558,-0.1655,-0.1682,-0.1718,-0.1777,-0.1835,-0.1834,-0.1814,-0.1822,-0.1823,-0.1824,-0.1824,-0.1825,-0.1825,-0.1418,-0.1439,-0.1435,-0.1461,-0.1481,-0.1548,-0.1685,-0.1782,-0.1881,-0.1884,-0.1884,-0.1815,-0.1778,-0.1805,-0.1836,-0.1834,-0.1833,-0.1832,-0.1831,-0.1351,-0.1368,-0.1359,-0.138,-0.146,-0.1539,-0.1712,-0.1919,-0.2047,-0.21,-0.196,-0.1964,-0.1995,-0.1985,-0.2016,-0.2101,-0.2101,-0.2101,-0.2101,-0.1296,-0.1306,-0.1296,-0.1333,-0.1426,-0.1538,-0.1723,-0.1887,-0.2008,-0.2012,-0.2043,-0.193,-0.1921,-0.1942,-0.1933,-0.196,-0.2029,-0.2029,-0.2029,-0.1241,-0.1246,-0.1225,-0.1277,-0.1397,-0.1534,-0.1635,-0.1764,-0.193,-0.202,-0.1982,-0.1985,-0.1808,-0.1798,-0.1814,-0.1805,-0.1844,0,0]},{"header":{"parameterUnit":"m.s-1","parameterCategory":2,"la1":30.2992,"la2":30.254,"lo1":-89.0895,"lo2":-89.0443,"dy":0.0025,"dx":0.0025,"nx":19,"ny":19,"refTime":"2026-03-31T21:00:00:Z","depth":"0","parameterNumber":3,"parameterNumberName":"V-component_of_CURRENTS"},"data":[0,0,0,-0.0118,-0.0118,-0.0083,-0.0082,0.002,0.0021,0,0,0,0,0,0,0,0,0,0,0,-0.013,-0.013,-0.0118,-0.0118,-0.0083,-0.0082,0.002,0.0021,0,0,0,0,0,0,0,0,0,0,0,-0.013,-0.013,-0.013,-0.0118,-0.0083,-0.0082,0.0019,-0.0019,0,0,0,0,0,0,0,0,0,0,-0.0059,-0.008,-0.013,-0.013,-0.0118,-0.0083,-0.0082,-0.0021,-0.0017,0.0017,0,0.0015,0,0.0017,0.0028,0.0028,0,0,0,-0.0108,-0.0084,-0.0078,-0.013,-0.0118,-0.0083,-0.0096,-0.0019,-0.0014,0.0023,0.0016,0.002,0.0019,0.0029,0.0029,0.0133,0.0133,0,0,-0.011,-0.0115,-0.0082,-0.0075,-0.0116,-0.0097,-0.0095,-0.0016,-0.001,0.0017,0.0022,0.0021,0.0029,0.003,0.0132,0.0133,0,0,0,-0.0122,-0.0116,-0.0114,-0.0079,-0.0079,-0.0096,-0.0094,-0.0013,-0.0014,0.0023,0.0022,0.003,0.0031,0.0132,0.0132,0.0114,0,0,0,-0.0123,-0.0124,-0.0115,-0.0116,-0.0081,-0.0053,-0.0092,-0.0019,-0.0011,0.0021,0.003,0.0032,0.0132,0.0132,0.0113,0.0083,0,0,0,-0.013,-0.0125,-0.0125,-0.0117,-0.0107,-0.0055,-0.005,-0.0018,-0.0011,0.0028,0.0033,0.0131,0.0132,0.0113,0.0084,0.0112,0,0,0,-0.0131,-0.0166,-0.0125,-0.0154,-0.0107,-0.0095,-0.0051,-0.0036,-0.0008,0.0031,0.0132,0.0132,0.0113,0.0084,0.0112,0.0096,0.0096,0,0,-0.0186,-0.0172,-0.019,-0.0153,-0.0155,-0.0098,-0.0062,-0.0012,0.0022,0.0111,0.0113,0.0113,0.0084,0.0112,0.0141,0.0139,0,0,0,-0.0215,-0.0223,-0.0218,-0.0202,-0.017,-0.0105,-0.0047,0.0,0.0072,0.0041,0.0135,0.0116,0.0135,0.0126,0.0125,0.0298,0.0136,0.0136,0.0136,-0.0281,-0.026,-0.0268,-0.0226,-0.0195,-0.0101,-0.0046,0.0038,0.0074,0.0108,0.0118,0.0145,0.0136,0.0135,0.0314,0.0149,0.0149,0.0149,0.0149,-0.0346,-0.035,-0.0286,-0.0292,-0.0198,-0.0149,-0.0018,0.0026,0.0123,0.0135,0.0156,0.0126,0.0132,0.0324,0.0148,0.0148,0.0148,0.0148,0.0148,-0.0389,-0.0388,-0.0377,-0.0344,-0.0281,-0.018,-0.0126,-0.0023,0.0084,0.0109,0.0128,0.0128,0.0283,0.013,0.013,0.013,0.013,0.013,0.013,-0.0442,-0.0429,-0.044,-0.0398,-0.0378,-0.0324,-0.0195,-0.013,0.0011,0.0097,0.0098,0.0319,0.014,0.0125,0.0131,0.0131,0.0131,0.013,0.013,-0.051,-0.0503,-0.0527,-0.0523,-0.0489,-0.0501,-0.0372,-0.0219,-0.0096,-0.0023,0.0318,0.0113,0.0119,0.012,0.0106,0.0106,0.0106,0.0106,0.0106,-0.0553,-0.0551,-0.0596,-0.0618,-0.0622,-0.0586,-0.0559,-0.0338,0.0078,0.0311,0.0409,0.0436,0.0429,0.0457,0.045,0.0445,0.0531,0.0532,0.0533,-0.0583,-0.0592,-0.0641,-0.0668,-0.0689,-0.07,-0.0686,-0.0423,0.0237,0.0572,0.066,0.0641,0.0703,0.0678,0.0735,0.0712,0.0706,0,0]}],[{"header":{"parameterUnit":"m.s-1","parameterCategory":2,"la1":30.2992,"la2":30.254,"lo1":-89.0895,"lo2":-89.0443,"dy":0.0025,"dx":0.0025,"nx":19,"ny":19,"refTime":"2026-03-31T21:00:00:Z","depth":"2","parameterNumber":2,"parameterNumberName":"U-component_of_CURRENTS"},"data":[0,0,0,-0.152,-0.1523,-0.1632,-0.1632,-0.1596,-0.1595,0,0,0,0,0,0,0,0,0,0,0,-0.1481,-0.1483,-0.152,-0.1523,-0.1632,-0.1632,-0.1596,-0.1595,0,0,0,0,0,0,0,0,0,0,0,-0.1481,-0.1482,-0.1484,-0.1524,-0.1632,-0.1632,-0.1596,-0.1552,0,0,0,0,0,0,0,0,0,0,-0.1466,-0.1437,-0.1482,-0.1484,-0.1525,-0.1631,-0.1632,-0.1552,-0.1555,-0.1504,0,-0.1545,0,-0.1576,-0.1591,-0.1591,0,0,0,-0.1501,-0.1434,-0.1496,-0.1484,-0.1526,-0.1631,-0.1576,-0.1555,-0.1558,-0.1507,-0.1545,-0.1545,-0.1576,-0.159,-0.159,-0.1488,-0.1488,0,0,-0.1495,-0.1459,-0.1495,-0.1499,-0.1582,-0.1573,-0.158,-0.1558,-0.155,-0.1545,-0.1545,-0.1575,-0.159,-0.159,-0.1489,-0.1488,0,0,0,-0.1493,-0.1455,-0.1519,-0.1499,-0.1537,-0.1577,-0.1585,-0.155,-0.1583,-0.1545,-0.1575,-0.159,-0.1589,-0.149,-0.1489,-0.1497,0,0,0,-0.1488,-0.1457,-0.1517,-0.1491,-0.154,-0.1562,-0.1576,-0.1584,-0.1584,-0.1575,-0.159,-0.1588,-0.149,-0.1489,-0.1498,-0.1539,0,0,0,-0.1471,-0.1453,-0.1483,-0.149,-0.1552,-0.1565,-0.1594,-0.1585,-0.1601,-0.1591,-0.1588,-0.1491,-0.1489,-0.1499,-0.154,-0.1645,0,0,0,-0.1406,-0.1459,-0.1482,-0.1531,-0.1552,-0.1603,-0.1595,-0.1607,-0.1599,-0.1589,-0.149,-0.1489,-0.1499,-0.154,-0.1643,-0.1629,-0.1635,0,0,-0.1439,-0.1461,-0.149,-0.1515,-0.1555,-0.1585,-0.157,-0.1558,-0.1551,-0.1483,-0.1482,-0.1497,-0.154,-0.1644,-0.1541,-0.1551,0,0,0,-0.1478,-0.1493,-0.1512,-0.1536,-0.1579,-0.1568,-0.1559,-0.1553,-0.1512,-0.1547,-0.1464,-0.1491,-0.1558,-0.1543,-0.155,-0.1482,-0.1482,-0.1482,-0.1482,-0.1432,-0.1465,-0.1479,-0.1507,-0.1527,-0.1532,-0.1539,-0.1512,-0.1485,-0.1461,-0.1471,-0.1522,-0.1498,-0.1505,-0.142,-0.142,-0.142,-0.142,-0.142,-0.1422,-0.1421,-0.1432,-0.1462,-0.1459,-0.1445,-0.1466,-0.1467,-0.15,-0.1442,-0.1507,-0.1517,-0.1514,-0.142,-0.142,-0.142,-0.142,-0.142,-0.142,-0.1365,-0.1369,-0.1387,-0.1391,-0.1392,-0.1404,-0.1478,-0.15,-0.1528,-0.1577,-0.162,-0.1619,-0.1604,-0.1622,-0.1623,-0.1623,-0.1624,-0.1624,-0.1625,-0.1295,-0.1315,-0.1309,-0.1329,-0.1342,-0.1392,-0.1504,-0.1582,-0.166,-0.1658,-0.1658,-0.1592,-0.1586,-0.1617,-0.1634,-0.1632,-0.1631,-0.163,-0.163,-0.1234,-0.125,-0.1241,-0.1254,-0.1311,-0.1365,-0.1515,-0.1677,-0.1787,-0.1824,-0.1724,-0.1718,-0.1744,-0.1736,-0.177,-0.1828,-0.1828,-0.1828,-0.1828,-0.1178,-0.1188,-0.1175,-0.12,-0.1266,-0.1354,-0.1481,-0.159,-0.1705,-0.1701,-0.1706,-0.1599,-0.1595,-0.1607,-0.1601,-0.163,-0.1651,-0.1651,-0.165,-0.1116,-0.1125,-0.1098,-0.1141,-0.1232,-0.1331,-0.1372,-0.1393,-0.1485,-0.1638,-0.1621,-0.1826,-0.1678,-0.1668,-0.169,-0.168,-0.1729,0,0]},{"header":{"parameterUnit":"m.s-1","parameterCategory":2,"la1":30.2992,"la2":30.254,"lo1":-89.0895,"lo2":-89.0443,"dy":0.0025,"dx":0.0025,"nx":19,"ny":19,"refTime":"2026-03-31T21:00:00:Z","depth":"2","parameterNumber":3,"parameterNumberName":"V-component_of_CURRENTS"},"data":[0,0,0,-0.0172,-0.0172,-0.0133,-0.0133,-0.002,-0.0019,0,0,0,0,0,0,0,0,0,0,0,-0.0185,-0.0185,-0.0172,-0.0172,-0.0133,-0.0133,-0.002,-0.0019,0,0,0,0,0,0,0,0,0,0,0,-0.0185,-0.0185,-0.0185,-0.0172,-0.0133,-0.0133,-0.002,-0.0062,0,0,0,0,0,0,0,0,0,0,-0.0107,-0.0128,-0.0185,-0.0185,-0.0172,-0.0133,-0.0133,-0.0065,-0.006,-0.0023,0,-0.0026,0,-0.0024,-0.0011,-0.001,0,0,0,-0.016,-0.0133,-0.0128,-0.0185,-0.0171,-0.0133,-0.0147,-0.0062,-0.0056,-0.0016,-0.0025,-0.0021,-0.0022,-0.001,-0.001,0.0096,0.0097,0,0,-0.0162,-0.0167,-0.0133,-0.0125,-0.0171,-0.0148,-0.0146,-0.0059,-0.0052,-0.0024,-0.0019,-0.002,-0.0009,-0.0008,0.0096,0.0097,0,0,0,-0.0176,-0.0169,-0.0167,-0.0129,-0.0129,-0.0148,-0.0145,-0.0056,-0.0058,-0.0018,-0.0019,-0.0009,-0.0007,0.0096,0.0096,0.0073,0,0,0,-0.0177,-0.0178,-0.0168,-0.0169,-0.0132,-0.01,-0.0143,-0.0063,-0.0054,-0.0019,-0.0009,-0.0006,0.0096,0.0096,0.0073,0.0035,0,0,0,-0.0185,-0.0178,-0.0179,-0.017,-0.0159,-0.0102,-0.0098,-0.0062,-0.0055,-0.001,-0.0006,0.0095,0.0096,0.0073,0.0037,0.0046,0,0,0,-0.0184,-0.0219,-0.0179,-0.0205,-0.016,-0.0142,-0.0098,-0.0076,-0.0045,-0.0008,0.0096,0.0096,0.0073,0.0037,0.0046,0.0024,0.002,0,0,-0.0237,-0.0225,-0.024,-0.0204,-0.0201,-0.0146,-0.0107,-0.0052,-0.0016,0.0073,0.0075,0.0073,0.0037,0.0046,0.0063,0.0057,0,0,0,-0.0262,-0.027,-0.0262,-0.0244,-0.021,-0.0148,-0.0086,-0.0042,0.003,0.0004,0.0094,0.0071,0.0078,0.0066,0.0062,0.0099,0.0099,0.0099,0.0099,-0.0326,-0.0303,-0.0307,-0.0263,-0.0231,-0.0139,-0.009,-0.0011,0.0032,0.0062,0.0068,0.0077,0.0066,0.0062,0.0102,0.0102,0.0102,0.0102,0.0102,-0.0388,-0.039,-0.0325,-0.0327,-0.0237,-0.0188,-0.0069,-0.0027,0.0054,0.0078,0.0087,0.0061,0.0057,0.0101,0.0101,0.0101,0.0101,0.0101,0.0101,-0.0432,-0.043,-0.0417,-0.0381,-0.0321,-0.0223,-0.0185,-0.0089,0.0008,0.0022,0.0032,0.0032,0.0046,0.0038,0.0038,0.0038,0.0038,0.0038,0.0038,-0.0488,-0.0473,-0.048,-0.0437,-0.0417,-0.037,-0.026,-0.021,-0.0092,-0.0011,-0.001,0.0055,0.0058,0.0043,0.0036,0.0036,0.0037,0.0037,0.0037,-0.0557,-0.0548,-0.0567,-0.0562,-0.053,-0.0549,-0.0439,-0.0323,-0.0224,-0.0167,-0.0013,-0.0011,-0.0008,-0.0005,-0.002,-0.0043,-0.0043,-0.0043,-0.0043,-0.06,-0.0596,-0.0635,-0.0656,-0.0664,-0.0635,-0.0634,-0.0452,-0.0226,-0.0093,-0.0091,-0.0081,-0.0076,-0.0076,-0.0071,-0.0087,-0.0128,-0.0128,-0.0128,-0.0627,-0.0635,-0.068,-0.0704,-0.0729,-0.0749,-0.075,-0.0525,-0.0198,-0.0131,-0.0104,-0.0049,-0.0027,-0.0023,-0.0016,-0.0011,-0.0033,0,0]}],[{"header":{"parameterUnit":"m.s-1","parameterCategory":2,"la1":30.2992,"la2":30.254,"lo1":-89.0895,"lo2":-89.0443,"dy":0.0025,"dx":0.0025,"nx":19,"ny":19,"refTime":"2026-03-31T21:00:00:Z","depth":"4","parameterNumber":2,"parameterNumberName":"U-component_of_CURRENTS"},"data":[0,0,0,-0.0731,-0.0729,-0.0669,-0.0669,-0.0894,-0.0896,0,0,0,0,0,0,0,0,0,0,0,-0.0748,-0.0746,-0.0732,-0.0729,-0.0669,-0.0669,-0.0893,-0.0896,0,0,0,0,0,0,0,0,0,0,0,-0.0748,-0.0747,-0.0745,-0.0729,-0.0669,-0.0669,-0.0892,-0.0869,0,0,0,0,0,0,0,0,0,0,-0.0893,-0.0878,-0.0747,-0.0745,-0.0728,-0.0669,-0.0669,-0.0865,-0.0871,-0.0999,0,-0.0955,0,-0.0929,-0.0916,-0.0917,0,0,0,-0.0756,-0.0873,-0.083,-0.0745,-0.0727,-0.0669,-0.0704,-0.0866,-0.0873,-0.1008,-0.0958,-0.0964,-0.0933,-0.0917,-0.0919,-0.1081,-0.1081,0,0,-0.0759,-0.0781,-0.0823,-0.0832,-0.0675,-0.0705,-0.0701,-0.0867,-0.0884,-0.0958,-0.0968,-0.0936,-0.0919,-0.0922,-0.1082,-0.1081,0,0,0,-0.0751,-0.0784,-0.0731,-0.0825,-0.0788,-0.0703,-0.0699,-0.0877,-0.0849,-0.097,-0.0939,-0.0921,-0.0925,-0.1082,-0.1081,-0.1135,0,0,0,-0.0754,-0.0776,-0.0732,-0.0752,-0.0782,-0.0797,-0.0705,-0.0837,-0.0854,-0.0938,-0.0921,-0.0927,-0.1082,-0.1082,-0.1135,-0.1162,0,0,0,-0.0757,-0.0779,-0.0751,-0.0751,-0.0709,-0.0791,-0.0774,-0.0838,-0.0837,-0.0917,-0.0928,-0.1083,-0.1082,-0.1134,-0.1161,-0.1205,0,0,0,-0.0812,-0.0763,-0.0751,-0.0743,-0.0709,-0.076,-0.0772,-0.0889,-0.0972,-0.0923,-0.1082,-0.1081,-0.1134,-0.116,-0.1203,-0.1075,0,0,0,-0.078,-0.0761,-0.0767,-0.0753,-0.0795,-0.0772,-0.0849,-0.098,-0.0983,-0.1056,-0.1058,-0.1135,-0.1161,-0.1204,-0.1019,0,0,0,0,-0.078,-0.0766,-0.0785,-0.081,-0.0851,-0.0896,-0.0976,-0.0986,-0.104,-0.1011,-0.11,-0.1114,-0.1141,-0.1059,-0.1077,-0.1077,-0.1077,-0.1077,-0.1077,-0.0776,-0.081,-0.0854,-0.0892,-0.0942,-0.1027,-0.1063,-0.1077,-0.1105,-0.1109,-0.1133,-0.1166,-0.1076,-0.1099,-0.11,-0.11,-0.11,-0.11,-0.11,-0.0789,-0.0815,-0.0908,-0.095,-0.1034,-0.1105,-0.1149,-0.1159,-0.1177,-0.1139,-0.1163,-0.1087,-0.1105,-0.1104,-0.1103,-0.1103,-0.1102,-0.1102,-0.1102,-0.0776,-0.0791,-0.0856,-0.0975,-0.1071,-0.1138,-0.1192,-0.1216,-0.1223,-0.1253,-0.1164,-0.1204,-0.1232,-0.1266,-0.1266,-0.1267,-0.1267,-0.1267,-0.1267,-0.0743,-0.0804,-0.0871,-0.0981,-0.1049,-0.1128,-0.1217,-0.1243,-0.1273,-0.1206,-0.1269,-0.1222,-0.1217,-0.124,-0.1272,-0.1271,-0.1271,-0.127,-0.127,-0.0687,-0.074,-0.0814,-0.0891,-0.1036,-0.1075,-0.119,-0.1214,-0.1243,-0.122,-0.1183,-0.1186,-0.1161,-0.1158,-0.1178,-0.1194,-0.1193,-0.1191,0,-0.0659,-0.0689,-0.0797,-0.0877,-0.095,-0.1037,-0.1053,-0.1105,-0.1131,-0.1087,-0.1232,-0.1188,-0.1189,-0.1159,-0.1153,-0.1174,0,0,0,-0.0667,-0.0697,-0.0742,-0.0827,-0.0899,-0.0951,-0.1044,-0.1025,-0.113,-0.1121,-0.1154,-0.1164,-0.1241,-0.1286,-0.1256,-0.1249,-0.1285,0,0]},{"header":{"parameterUnit":"m.s-1","parameterCategory":2,"la1":30.2992,"la2":30.254,"lo1":-89.0895,"lo2":-89.0443,"dy":0.0025,"dx":0.0025,"nx":19,"ny":19,"refTime":"2026-03-31T21:00:00:Z","depth":"4","parameterNumber":3,"parameterNumberName":"V-component_of_CURRENTS"},"data":[0,0,0,-0.0055,-0.0053,0.0052,0.0052,0.0163,0.0164,0,0,0,0,0,0,0,0,0,0,0,-0.0091,-0.009,-0.0055,-0.0053,0.0051,0.0052,0.0163,0.0164,0,0,0,0,0,0,0,0,0,0,0,-0.0091,-0.009,-0.009,-0.0053,0.0051,0.0052,0.0163,0.0093,0,0,0,0,0,0,0,0,0,0,-0.0005,-0.0041,-0.0091,-0.009,-0.0052,0.0051,0.0052,0.009,0.0097,0.0106,0,0.0117,0,0.0137,0.017,0.017,0,0,0,-0.0041,-0.0048,-0.0019,-0.009,-0.0051,0.0051,0.0008,0.0094,0.0102,0.0115,0.0118,0.0123,0.0139,0.017,0.0171,0.0204,0.0203,0,0,-0.0047,-0.0069,-0.0025,-0.0015,-0.0031,0.0004,0.0011,0.0099,0.0104,0.0119,0.0126,0.0141,0.0171,0.0172,0.0204,0.0204,0,0,0,-0.0071,-0.0073,-0.0046,-0.0019,-0.0002,0.0007,0.0015,0.0101,0.0109,0.0127,0.0142,0.0172,0.0173,0.0204,0.0204,0.0165,0,0,0,-0.0074,-0.0088,-0.0049,-0.0061,-0.0003,0.0053,0.0014,0.0104,0.0114,0.0142,0.0172,0.0173,0.0205,0.0204,0.0167,0.0127,0,0,0,-0.0094,-0.0091,-0.0081,-0.0063,-0.0023,0.0052,0.0067,0.0107,0.0123,0.017,0.0174,0.0205,0.0204,0.0169,0.0131,0.0102,0,0,0,-0.0117,-0.0103,-0.0081,-0.0062,-0.0024,0.0018,0.0067,0.0104,0.014,0.0172,0.0205,0.0204,0.0169,0.0133,0.0104,0.0056,0,0,0,-0.0113,-0.0103,-0.0092,-0.007,-0.0055,0.0005,0.0031,0.0096,0.0132,0.0177,0.0178,0.0167,0.0131,0.0102,0.0016,0,0,0,0,-0.0099,-0.0098,-0.0086,-0.0073,-0.0037,-0.0014,0.0051,0.0084,0.0129,0.0149,0.0163,0.0141,0.0125,0.0103,0.02,0.0201,0.0201,0.0201,0.0201,-0.0153,-0.013,-0.013,-0.0104,-0.0079,-0.0025,0.0004,0.0054,0.0103,0.0109,0.0109,0.0055,0.0031,0.012,0.012,0.0119,0.0119,0.0119,0.0119,-0.0193,-0.0197,-0.018,-0.0172,-0.0148,-0.0125,-0.0047,-0.0007,0.0026,0.0071,0.0058,0.0062,0.0115,0.0116,0.0116,0.0117,0.0117,0.0117,0.0118,-0.024,-0.0239,-0.024,-0.0251,-0.0244,-0.0189,-0.0182,-0.0106,-0.0037,-0.004,-0.0057,0.0018,0.0022,-0.004,-0.004,-0.004,-0.0041,-0.0041,-0.0041,-0.0296,-0.0292,-0.0326,-0.0324,-0.0337,-0.0328,-0.0262,-0.024,-0.0157,-0.013,-0.0058,0.0001,0.0006,0.0013,-0.0046,-0.0045,-0.0044,-0.0044,-0.0044,-0.0337,-0.0348,-0.0394,-0.0422,-0.0455,-0.0444,-0.0391,-0.0331,-0.0318,-0.0285,-0.017,-0.0163,-0.0159,-0.015,-0.0148,-0.0256,-0.0257,-0.0258,0,-0.0379,-0.0383,-0.0466,-0.052,-0.0558,-0.0513,-0.0507,-0.0458,-0.0356,-0.0351,-0.0315,-0.0188,-0.0181,-0.0177,-0.0171,-0.017,0,0,0,-0.0425,-0.0442,-0.0511,-0.0561,-0.0603,-0.0548,-0.0502,-0.0484,-0.0365,-0.0359,-0.028,-0.0274,-0.0169,-0.006,-0.0036,-0.0029,-0.0017,0,0]}]]